Погода в Херсоне

Хотите узнать прогноз погоды в Херсоне? Тогда Вам сюда: Погода в Херсоне

Поиск расширенной информации на нашем сайте:

Полезная информация:

Новости сайта



02.01.2020
Опубликован Долгосрочный прогноз погоды по городам России и ближнего зарубежья на январь 2020 года.
Карты: Прогноз на январь и февраль 2020 года, Сравнение прогнозируемой аномалии приземной температуры воздуха на январь 2020 года по разным моделям.




Погода в Херсоне - сегодня

Время (UTC), дата Ветер
(°,м/с) 
Видим.   Явления Облачность Т
(°С)
Тd
(°С)
f(%) Тe
(°С)
Pmin
(гПа)
dP
(гПа)
Po
(мм)
O2
(г/м3)
Тmin Tmax R s Состояние
почвы
15 02.07.20 010 (С) 20000 м    1/1 600 м 
[Cu hum]
+32.1 +10.1 26 +33  1011.4  -1  755  270           
18 02.07.20 020 (С) 10 км    ясно 
+27.4 +14 44 +34  1011.6  0.1  755  274    +33       
21 02.07.20 070 (В) 10 км    ясно 
+23.9 +13 50 +29  1012.3  0.6  755  277           
00 03.07.20 050 (СВ) 10 км    ясно 
+22.8 +14.9 61 +31  1011.5  -0.8  754  277           
03 03.07.20 060 (СВ) 10 км    ясно 
+22.1 +17.9 77 +36  1011.6  0.1  755  277           
06 03.07.20 070 (В) 20000 м    ясно 
+29.6 +17.7 49 +43  1011.7  0.2  755  270  +21.8         
09 03.07.20 100 (В) 20000 м    3/3 600 м 
[Cu hum]
+33.4 +16.7 37 +45  1010.9  -0.7  754  267           
12 03.07.20 060 (СВ) 20000 м    6/6 600 м 
[Cu med, cong]
+35.2 +15.3 31 +44  1009.9  -1  753  266           
15 03.07.20 230 (ЮЗ) 20000 м    3/3 600 м 
[Cu hum]
+34.5 +16.4 34 +46  1008.8  -1.1  753  266           
18 03.07.20 280 (З) 10 км    3/3 600 м кучево-дожд. 
[Cb cap]
+29.8 +17.7 48 +43  1009.5  0.7  753  270    +36.3       
21 03.07.20 050 (СВ) 10 км    ясно 
+25 +18.9 69 +41  1010.9  1.3  754  274           
00 04.07.20 300 (СЗ) 10 км    ясно 
+23.6 +19.6 78 +41  1010.2  -0.8  753  275           
03 04.07.20 350 (С) 10 км    ясно 
+21.3 +18.9 86 +37  1010.6  0.4  754  277           
06 04.07.20 060 (СВ) 20000 м    ясно 
+30.8 +15.2 39 +40  1010.3  -0.1  754  270  +20.7         
09 04.07.20 100 (В) 20000 м    ясно 
+37.3 +8.5 17 +37  1009.9  -0.3  753  266           
12 04.07.20 150 (ЮВ) 20000 м    ясно 
+37.5 +3.8 12 +38  1008.9  -1  753  266           
15 04.07.20 130 (ЮВ) 20000 м    ясно 
+38.1 +2.9 11 +38  1007.6  -1.3  752  265           
18 04.07.20 230 (ЮЗ) 20000 м    ясно 
+31.1 +14.6 37 +39  1008.1  0.4  752  269    +39.4       
21 04.07.20 160 (Ю) 10 км    ясно 
+26.5 +19.9 67 +45  1008.7  0.5  752  272           
00 05.07.20 220 (ЮЗ) 10 км    ясно 
+24.9 +20.1 75 +44  1007.8  -0.9  752  273           
03 05.07.20 тихо ()   4000 м  дымка  ясно 
+21.7 +19.3 86 +39  1007.7  -0.2  752  276           
06 05.07.20 070 (В) 10 км    ясно 
+30.4 +20.3 55 +50  1007.9  0.4  752  268  +21.3         
09 05.07.20 050 (СВ) 20000 м    1/1 600 м 
[Cu hum]
+36 +7.1 17 +36  1007.7  -0.1  752  267           
12 05.07.20 060 (СВ) 20000 м    4/3 600 м верхняя 
[Cu med, cong|Ci ing]
+37.2 +8.9 18 +37  1006.4  -1.3  751  265           
15 05.07.20 300 (СЗ) 20000 м    5/3 600 м кучево-дожд., верхняя 
[Cb calv|Ci sp]
+34.4 +13.6 29 +41  1006.3  -0.2  751  266           
Время (UTC), дата Ветер
(°,м/с) 
Видим.   Явления Облачность Т
(°С)
Тd
(°С)
f(%) Тe
(°С)
Pmin
(гПа)
dP
(гПа)
Po
(мм)
O2
(г/м3)
Тmin Tmax R s Состояние
почвы

Для получения пояснительной информации подведите курсор к названию столбца.

ПОГОДА в Херсоне - архив

Всё, что Вы хотите узнать о погоде в Херсоне - удобно и подробно!

Выберите нужную дату (начиная с 1 января 2019* года) и нажмите кнопку "Найти".
Будут отображены архивные сводки погоды по пункту Херсон, начиная с указанной даты.


Отображать данные в формате CSV (для использования в таблицах Excel)


Внимание! Наш архив погоды предназначен исключительно для личного некоммерческого использования в познавательных целях. Если Вам необходимы официальные справки о состоянии погоды (для производственных, юридических, коммерческих и т.п. целей), обращайтесь в органы Росгидромета.

*Примечание: данная дата относится к архиву по метеостанциям СССР (Россия, СНГ, Балтия).
Архив по метеостанциям Зарубежной Европы и Азии (кроме Китая) хранится 10 дней, по другим регионам земного шара (Китай, Африка, Америка, Австралия, Океания) - 1 день.

Херсон - район местоположения метеостанции


Название, широта, долгота, высота метеостанции:
Херсон 46.6°ш. 32.6°д. 54 м над ур. моря [Украина]

Дополнительная информация

В oтличие oт бoльшинства пoгoдных сайтoв мы публикуем пoдрoбную метеoинфoрмацию в детальнoм прoфессиoнальнoм фoрмате.

Характеристики температуры и влажнoсти вoздуха измеряются на высoте 2 м в тени вдали oт зданий и деревьев.
Скoрoсть ветра измеряется на высoте 10 м (на урoвне рoста челoвека скoрoсть ветра ниже в 1.5-2 раза). Если метеoстанция нахoдится в гoрoде или в лесу, тo скoрoсть ветра занижена на 2-4 м/с пo сравнению с oткрытым местoм. Скoрoсть ветра над акватoриями крупных рек и oзёр, а также на вершинах хoлмoв на 2-5 м/с выше, чем в oбычных услoвиях.
Атмoсфернoе давление в разных тoчках местнoсти мoжет значительнo oтличаться oт давления на метеoстанции, в зависимoсти oт услoвий рельефа (при пoдъёме на 10 м давление пoнижается примернo на 1 мм рт.ст.).